Driggs, ID

7:50 AM MST on February 24, 2017 (GMT -0700)
Driggs

Weather History for KDIJ - October, 2012

Change the Weather History Date:

Monday, October 29, 2012

  Actual Average (KJAC) Record (KJAC)
Temperature  
Mean Temperature 51 °F -  
Max Temperature 59 °F 47 °F 66 °F (1962)
Min Temperature 43 °F 17 °F 2 °F (1971)
Degree Days  
Heating Degree Days 14    
Growing Degree Days 1 (Base 50)    
Moisture  
Dew Point 37 °F    
Average Humidity 65    
Maximum Humidity 80    
Minimum Humidity 44    
Precipitation  
Precipitation 0.00 in - - ()
Sea Level Pressure  
Sea Level Pressure 30.05 in    
Wind  
Wind Speed 10 mph (South)    
Max Wind Speed 15 mph    
Max Gust Speed -    
Visibility 10 miles    
Events      
Averages and records for this station are not official NWS values.
T = Trace of Precipitation, MM = Missing Value Source: NWS Daily Summary

Daily Weather History Graph

Daily Weather History Graph

Search for Another Location

Airport or City:

Trip Planner

Search our weather history database for the weather conditions in past years. The results will help you decide how hot, cold, wet, or windy it might be!

Date:

Astronomy

Oct. 29, 2012 Rise Set
Actual Time 7:57 AM MDT 6:18 PM MDT
Civil Twilight 7:27 AM MDT 6:48 PM MDT
Nautical Twilight 6:53 AM MDT 7:21 PM MDT
Astronomical Twilight 6:20 AM MDT 7:55 PM MDT
Moon 6:10 PM MDT (10/29) 7:52 AM MDT (10/29)
Length of Visible Light 11h 20m
Length of Day
10h 21m
Full, 100% of the Moon is Illuminated
Oct 29
Full
Oct 29
Full
Nov 6
Last Quarter
Nov 13
New
Nov 20
First Quarter

Hourly Weather History & Observations

Time (MDT) Temp. Windchill Dew Point Humidity Pressure Visibility Wind Dir Wind Speed Gust Speed Precip Events Conditions
12:56 AM 45.0 °F 39.7 °F 38.8 °F 79% 30.04 in 10.0 mi South 10.4 mph - N/A   Overcast
1:56 AM 45.9 °F 40.8 °F 37.9 °F 74% 30.03 in 10.0 mi South 10.4 mph - N/A   Overcast
2:56 AM 45.0 °F 40.1 °F 37.9 °F 76% 30.04 in 10.0 mi South 9.2 mph - N/A   Overcast
3:56 AM 43.9 °F 39.9 °F 37.9 °F 80% 30.04 in 10.0 mi SSE 6.9 mph - N/A   Overcast
4:56 AM 46.9 °F - 36.9 °F 68% 30.01 in 10.0 mi South 8.1 mph - N/A   Overcast
5:56 AM 43.9 °F 39.9 °F 37.9 °F 80% 30.04 in 10.0 mi SE 6.9 mph - N/A   Mostly Cloudy
6:56 AM 45.0 °F 41.2 °F 36.9 °F 73% 30.03 in 10.0 mi South 6.9 mph - N/A   Mostly Cloudy
7:56 AM 43.9 °F 39.3 °F 36.9 °F 76% 30.05 in 10.0 mi South 8.1 mph - N/A   Overcast
8:56 AM 45.0 °F 40.1 °F 36.9 °F 73% 30.05 in 10.0 mi SSE 9.2 mph - N/A   Mostly Cloudy
9:56 AM 46.9 °F - 36.9 °F 68% 30.07 in 10.0 mi SW 13.8 mph - N/A   Mostly Cloudy
10:56 AM 45.9 °F 40.0 °F 39.9 °F 80% 30.08 in 10.0 mi SE 12.7 mph - 0.00 in   Mostly Cloudy
11:56 AM 50.0 °F - 37.9 °F 63% 30.07 in 10.0 mi SSW 15.0 mph - N/A   Mostly Cloudy
12:56 PM 54.0 °F - 38.8 °F 57% 30.04 in 10.0 mi South 15.0 mph - N/A   Partly Cloudy
1:56 PM 54.9 °F - 38.8 °F 55% 30.04 in 10.0 mi SSW 12.7 mph - N/A   Mostly Cloudy
2:56 PM 56.8 °F - 38.8 °F 51% 30.02 in 10.0 mi South 9.2 mph - N/A   Clear
3:56 PM 59.0 °F - 36.9 °F 44% 30.00 in 10.0 mi WSW 5.8 mph - N/A   Partly Cloudy
4:56 PM 56.8 °F - 34.9 °F 44% 30.00 in 10.0 mi SW 10.4 mph - N/A   Clear
5:56 PM 54.9 °F - 36.0 °F 49% 30.03 in 10.0 mi SSW 8.1 mph - N/A   Clear
6:56 PM 46.9 °F - 36.0 °F 66% 30.08 in 10.0 mi SE 6.9 mph - N/A   Clear
7:56 PM 45.0 °F 39.7 °F 32.9 °F 63% 30.10 in 10.0 mi SSE 10.4 mph - N/A   Clear
9:56 PM 45.0 °F 40.6 °F 34.9 °F 68% 30.09 in 10.0 mi SE 8.1 mph - N/A   Overcast
10:56 PM 45.9 °F 40.4 °F 32.0 °F 58% 30.10 in 10.0 mi SSE 11.5 mph - N/A   Scattered Clouds
11:56 PM 46.9 °F - 31.1 °F 54% 30.08 in 10.0 mi SSE 12.7 mph - N/A   Partly Cloudy